Location: Lecco
(45.8566°N, 9.3977°E)
Time: 12:45:21
(UTC+02:00)

Vanguard 2 Rocket - Pass Details

Date: 16 August 2020
Orbit: 554 x 3326 km, 32.9° (Epoch: 24 September)

Event Time Altitude Azimuth Distance (km) Brightness Sun altitude
Rises 00:40:26 0° 256° (WSW) 5,152 10.8 -29.6°
Enters shadow 00:47:47 10° 226° (SW) 4,927 10.3 -29.8°
Reaches altitude 10° 00:48:24 10° 223° (SW) 4,952 - -29.9°
Maximum altitude 00:50:55 11° 213° (SSW) 5,115 - -29.9°
Drops below altitude 10° 00:53:37 10° 203° (SSW) 5,383 - -30.0°
Sets 01:04:52 0° 173° (S) 7,057 - -30.3°
